YZ-1 R/B

基本信息
目录编号:
43650
目录名称:
YZ-1 R/B
国际标识:
2018-078D
轨道中心:
EARTH
物体状态:
在轨
发射日期:
2018-10-15 UTC
国别:
中国 (CN)
轨道信息
数据来源: 国际轨道数据
星历时间: 2026-07-10T17:29:37+0800
半长轴: 28804.624km
偏心率: 0.0107194
轨道倾角: 54.004°
近地点辐角: 65.174°
升交点赤经: 308.132°
平近点角: 295.944°
近地点: 22117.718km
远地点: 22735.256km
周期: 810.873分钟
每日圈数: 1.775863
详细信息
发射场:
XSC
轨道高度:
MEO
数据来源:
AOE Integration Group
参考系:
TEME
时间系统:
UTC
历元类型:
SGP4
2D轨道图
3D轨道图
轨道高度分析图
轨道倾角分析图
轨道综合分析图
查看轨道综合分析图